SL-16 DEB, 22610

Orbit data source: Space-Track

SL-16 DEB, 22610 is space debris in LEO originally from a launch on Fri, 26 Mar 1993 UTC launched from the Tyuratam Missile And Space Complex (TTMTR). Debris objects in space refer to the collection of defunct objects orbiting the Earth. Examples of debris include non-operational satellites, rocket bodies, and fragments generated from explosions, collisions, or faulty payload assembly.

Loading next visibility...
Identifier
22610, 1993-016U
Orbit
LEO
Country
Flag of CISCIS
Related business
Manufacturer
Unknown
Mission
Spacecraft
Bus & Motor
Unknown
Mass
Unknown
Launch date (UTC)
1993-03-26 (33 years ago)
Launch vehicle
Unknown
Launch site
Tyuratam Missile And Space Complex (TTMTR)
Object type
Payload
Rocket body
Debris
Shape & HBR
Unknown shape, 0.3 m
Radar Cross Section
Small (<0.1 m²)

Expand to show TLE details & history
Last TLE update: 9 hours ago

TLE from 9 hours ago
0 SL-16 DEB
1 22610U 93016U   26035.27820042 -.00000020  00000-0  21356-4 0  9995
2 22610  71.0015   7.3780 0211843 137.3627 224.4135 13.67891949640435
Epoch: 2026-02-04T06:40Z
TLE epoch observation values (Epoch: 2026-02-04T06:40:36.516Z)
Latitude
-0.00006°
Longitude
132.77875°
Altitude
1,122.857 km
Speed
7.235 km/s
True Right ascension
00h 29m 30s
True Declination
0° 00' 00"
Sunlit
Object was in daylight at epoch
Visualization orbit readout
Latitude
Unknown
Longitude
Unknown
Altitude
Unknown
Speed
Unknown
Apparent Right ascension
Unknown
Apparent Declination
Unknown
Sunlit
N/A
Visualization observer readout
Local Sidereal Time
17:14:03
Azimuth
Unknown
Elevation
Unknown
Doppler factor
Unknown
Orbital elements
Apogee altitude
1,161.528 km
Perigee altitude
848.71 km
Semi-major axis
7,383.256 km
Eccentricity
0.02118
Inclination
71.0015°
RAAN
7.378°
Arg. of periapsis
137.3627°
True anomaly
222.74642°
Mean anomaly
224.4135°
Eccentric anomaly
223.57682°
Mean motion
3.42114 °/min
Orbital period
105.23 mins
BSTAR
0.000021356
Loading maneuver chart data...
Computing Atmospheric mass density...
Loading historical data...
Loading historical data...
Loading historical data...
Loading historical data...
Loading historical data...
Loading historical data...
Loading historical data...

Documentation

Showing up to 5 results
|